Вернуться в каталог

CZ-6A DEB

АктивенPO
NORAD 54553·DEBRIS·🇨🇳 China

Запущен Nov 11, 2022 с Taiyuan Satellite Launch Center

Loading…

Ближайшие Пролёты (ближайшие 24 часа)

TLE

СвежийSource: Space-Track

Эпоха: Sep 13, 2026, 18:37 UTC

1 54553U 22151LD  26256.77632702  .00052341  00000-0  30671-2 0  9992
2 54553  98.6363 351.3210 0027242 299.6733  60.1782 15.11281246132810

Отслеживайте CZ-6A DEB в реальном времени с AllMySat

Download on the App Store